Theta_e
353 352 345 345 342 339 339 337 339 335 336 335 333 331 331 331 332 331 330 334 330 328 328 328 329 330 330 331 333 338 343 347 349 349 351 352 353 352 350 349 349 348 349
355 346 345 343 341 341 340 337 335 335 336 334 333 333 333 332 333 332 330 331 338 332 329 328 329 330 331 332 332 335 340 346 347 347 347 348 348 350 351 350 350 348 348
352 350 350 343 343 347 343 340 338 339 334 334 333 334 333 332 331 331 332 329 329 337 334 329 330 330 331 332 334 332 337 343 346 345 346 346 346 348 350 351 348 348 347
346 348 350 345 339 343 342 338 335 333 329 329 328 330 331 331 330 329 330 328 328 326 331 335 329 329 331 333 332 333 334 340 344 344 344 344 344 345 346 349 349 347 347
339 341 345 343 344 346 342 339 332 329 327 329 329 330 328 326 326 325 327 326 326 325 325 330 333 330 331 332 333 332 332 338 342 342 343 342 343 343 344 343 345 347 346
336 336 333 333 330 330 329 329 329 335 333 331 327 325 327 325 327 325 325 323 322 323 323 326 326 325 332 331 333 335 334 333 340 341 341 340 341 342 342 343 342 344 346
331 334 330 331 331 330 332 331 328 327 325 326 322 321 321 323 323 324 322 321 321 321 322 323 324 325 325 328 330 332 334 335 336 341 339 339 339 340 342 342 341 342 343
327 324 327 327 327 323 328 326 325 320 321 322 316 315 309 314 318 319 319 320 320 320 320 324 322 326 325 326 327 329 332 336 336 341 339 337 338 339 339 340 341 342 342
324 323 322 322 322 323 318 321 320 320 315 318 321 313 307 308 312 317 320 317 319 318 322 322 323 323 326 324 324 327 327 329 335 340 340 337 337 337 337 339 340 342 342
322 322 321 322 322 320 319 317 317 318 317 315 317 320 321 317 309 307 314 317 318 318 321 320 320 322 324 322 322 324 325 325 331 336 337 335 336 335 337 337 338 340 340
322 321 322 321 321 319 320 320 319 319 318 317 316 317 317 314 316 313 307 310 316 318 317 319 319 321 324 323 321 322 323 324 326 329 333 333 331 333 334 335 335 336 338
319 322 320 321 322 321 319 321 320 321 320 320 319 317 317 312 312 311 309 310 312 313 318 318 318 323 321 323 322 320 322 323 324 324 324 325 327 328 330 332 333 334 336
317 321 321 320 320 322 321 322 321 320 320 318 319 317 319 318 318 315 312 310 309 313 317 322 321 321 323 325 323 321 323 322 322 321 321 322 323 325 327 329 331 333 335
317 322 321 321 320 321 321 322 321 320 320 318 318 319 317 317 320 318 314 311 307 310 314 313 320 316 318 319 323 320 322 321 320 319 319 320 321 322 323 325 327 329 332
318 320 321 321 320 318 319 319 316 317 318 319 319 318 316 319 319 320 321 318 312 306 308 313 312 314 311 312 320 317 317 319 318 317 316 317 318 319 320 322 323 326 327
321 320 321 319 317 318 318 318 317 318 317 320 320 318 317 317 317 318 319 319 318 313 307 314 310 309 307 308 312 310 313 315 315 316 316 316 316 317 320 321 322 324 326
320 320 318 317 317 315 317 316 317 317 316 317 319 317 316 317 312 317 320 319 317 316 310 310 309 307 305 305 304 306 307 307 309 312 314 315 314 314 315 318 322 323 324
321 318 316 315 314 314 316 316 314 315 314 314 314 316 314 312 311 315 318 316 315 317 314 307 306 305 304 304 303 302 303 304 304 309 312 312 313 313 313 313 315 319 321
319 318 318 314 312 314 313 316 315 314 314 314 314 314 313 314 312 315 316 313 314 314 315 307 303 304 303 304 303 302 301 302 303 307 309 309 311 312 312 313 313 315 317
318 317 316 315 312 312 312 314 313 313 313 312 312 311 313 313 312 313 312 311 311 313 312 307 303 303 304 305 304 301 300 299 298 301 304 307 308 310 311 311 313 313 312
318 317 315 316 314 312 310 312 313 313 312 311 308 308 310 312 311 311 311 312 313 310 307 306 304 303 301 301 300 302 300 301 300 300 300 301 304 305 306 308 309 310 308
318 318 314 313 313 311 303 306 309 313 312 309 306 308 308 309 310 308 308 308 309 311 307 304 303 301 300 301 301 301 301 300 294 300 298 297 302 300 302 303 306 305 306
319 317 316 314 313 312 302 303 307 311 313 310 310 311 308 307 308 310 309 308 307 307 307 305 303 303 301 301 300 297 296 296 295 299 299 295 302 298 301 302 304 304 304
319 318 316 317 314 310 302 302 304 315 313 312 311 312 309 307 305 308 308 306 307 306 307 307 307 306 302 301 301 300 299 298 300 302 303 292 298 298 300 301 303 303 303
320 318 317 317 316 313 300 300 306 315 312 310 311 311 311 308 300 302 307 306 305 304 302 302 301 299 299 300 302 302 301 305 301 298 300 297 297 296 299 298 301 302 301
319 317 316 318 310 314 298 299 303 312 312 311 314 314 303 305 299 299 308 308 305 304 302 301 301 300 302 303 302 303 306 305 305 299 301 297 299 300 296 299 300 300 300
Wind_Speed
8 7 7 8 7 6 9 4 6 4 7 9 11 11 9 9 9 5 6 8 11 10 9 10 12 14 12 14 15 14 14 14 13 12 12 11 12 12 13 13 11 11 9
7 6 6 7 9 4 7 8 8 8 6 7 8 10 6 7 11 10 8 7 8 12 13 11 11 12 14 16 15 17 15 14 15 14 12 11 10 11 14 15 14 14 12
9 8 7 7 8 9 11 7 9 8 9 9 8 10 5 8 4 8 4 9 11 14 15 13 14 12 13 17 18 18 17 16 16 15 13 12 11 9 13 15 15 15 14
10 8 6 6 2 6 9 6 7 6 7 6 5 5 6 8 8 8 9 10 11 11 6 13 8 7 12 17 17 18 18 18 16 16 15 14 12 9 9 12 14 15 15
10 9 7 6 7 5 6 7 7 3 4 7 5 9 3 3 5 10 12 12 14 11 10 12 8 7 17 16 14 16 19 19 16 18 16 16 14 11 10 9 11 15 16
15 11 7 8 5 4 4 2 6 8 7 8 9 8 9 9 6 9 10 13 11 10 10 8 8 9 8 7 11 15 18 22 18 18 18 17 16 14 12 11 9 9 12
10 10 11 8 9 6 7 6 6 10 7 8 3 7 11 11 10 8 1 9 9 10 9 4 4 4 8 15 10 13 17 21 23 20 21 18 17 16 15 12 11 9 9
11 11 10 11 11 11 10 7 9 9 11 8 8 9 10 10 4 5 3 4 7 8 9 6 5 4 7 6 7 13 14 17 23 21 20 17 17 16 14 13 11 11 10
7 10 10 10 11 10 9 11 9 11 10 10 10 3 6 6 7 6 5 4 6 8 5 8 8 8 6 6 9 6 13 18 15 20 18 17 17 15 12 11 10 10 11
7 9 9 6 4 8 8 8 7 8 7 9 7 4 6 6 6 6 6 4 6 8 6 8 7 6 9 7 6 7 10 13 16 12 18 16 15 14 12 11 9 10 11
8 11 10 7 5 6 5 5 5 6 7 7 6 8 7 8 6 5 8 6 4 2 6 6 8 4 6 8 8 6 8 15 10 5 12 10 6 8 9 10 10 11 12
9 13 11 7 7 6 6 5 6 8 9 8 6 7 6 4 8 5 7 8 8 5 1 2 4 3 6 7 9 8 9 12 6 2 2 2 3 6 7 10 13 13 14
11 12 10 10 10 10 9 10 10 7 8 8 8 6 5 5 5 6 5 7 7 7 3 4 4 5 5 6 7 8 8 7 2 2 1 3 4 7 10 11 12 14 14
8 11 11 11 10 12 12 12 10 9 10 10 12 9 8 5 4 4 4 4 7 6 3 4 4 7 8 8 11 6 2 8 9 9 5 4 5 9 11 13 14 14 14
10 12 11 12 11 14 12 14 9 10 10 9 9 9 8 4 5 4 4 4 4 4 3 4 3 10 7 8 14 8 7 17 12 6 7 9 9 12 13 15 15 15 13
12 12 12 13 11 12 12 11 10 11 12 9 8 10 8 5 4 5 5 4 3 4 3 4 7 5 8 7 11 10 11 15 22 19 13 8 8 10 13 16 17 15 14
10 12 13 11 12 12 12 11 12 11 12 12 12 12 4 3 2 5 4 3 3 3 2 3 6 6 7 8 8 8 9 10 9 21 19 15 9 6 7 10 13 14 13
12 12 11 11 11 11 13 12 11 12 12 13 15 13 8 4 3 6 4 5 4 3 2 6 5 5 5 5 6 6 6 8 9 17 18 19 16 14 10 3 9 15 17
11 11 12 9 10 12 12 12 13 13 12 13 15 14 11 8 7 6 5 5 5 4 5 6 3 3 4 2 4 6 7 6 8 18 16 19 20 21 21 14 5 14 14
10 8 9 11 9 12 12 13 12 12 11 13 13 13 13 13 10 8 7 5 4 2 6 7 3 3 3 4 3 3 5 7 8 9 16 17 16 23 24 23 18 15 10
8 8 13 10 9 10 10 12 11 11 11 12 10 11 11 15 18 16 6 8 5 6 7 7 6 5 4 3 3 2 4 5 8 9 9 9 9 11 14 22 21 25 20
9 8 9 10 9 8 11 13 12 11 12 10 9 8 9 15 13 16 17 20 18 9 9 7 5 5 5 3 4 4 4 3 4 6 6 9 11 13 12 13 25 28 26
6 9 9 8 9 10 11 11 12 7 10 11 11 9 9 8 10 8 11 14 17 17 15 6 6 4 4 3 3 5 5 4 3 1 2 8 8 12 10 14 27 27 28
7 8 9 10 9 9 8 10 14 9 9 11 10 11 13 11 9 10 9 11 12 11 8 5 6 7 5 5 5 2 0 1 0 1 0 8 5 9 9 10 25 25 25
6 8 8 11 9 8 7 11 12 8 10 10 9 10 9 8 8 9 2 5 9 9 10 12 12 10 9 7 3 2 1 1 8 6 3 4 5 8 9 8 10 23 21
5 6 8 8 9 7 8 10 9 4 5 3 6 7 8 8 7 8 5 4 5 7 8 8 7 4 5 7 10 7 5 1 6 7 4 3 2 1 4 5 7 9 9
Wind_Direction
268 297 284 287 293 311 305 258 220 241 228 223 240 247 260 285 306 264 277 186 191 217 248 275 289 295 290 287 278 275 279 258 229 215 209 209 212 217 221 219 215 212 205
265 278 277 273 287 278 286 305 305 298 281 256 245 249 227 245 266 300 284 303 223 210 223 243 267 280 290 286 276 269 267 269 233 209 210 204 206 214 225 225 218 214 204
295 290 301 330 347 338 323 300 277 267 269 263 297 328 267 265 262 267 301 290 279 205 215 226 244 271 285 292 281 267 261 262 236 214 199 197 200 210 215 224 224 222 211
340 329 321 317 298 249 284 333 339 335 14 352 358 344 312 245 271 263 254 272 287 301 298 232 237 261 282 284 279 270 259 255 251 212 197 196 196 197 213 218 222 223 222
5 345 356 356 353 319 331 334 330 8 5 304 294 267 265 280 254 259 286 308 303 288 271 267 259 249 267 271 280 274 262 251 245 231 201 194 193 191 202 213 219 223 223
6 357 357 7 354 3 340 316 280 279 274 263 259 282 290 257 234 267 262 276 278 298 305 348 322 303 339 342 305 294 265 252 247 233 212 197 190 190 193 199 205 200 218
3 1 348 339 342 326 296 309 305 298 277 295 328 268 278 304 257 235 163 283 298 304 307 320 305 317 297 321 311 315 315 255 239 228 221 198 194 189 190 194 202 205 206
7 354 352 334 359 328 316 357 342 330 310 317 318 309 297 302 46 68 334 277 283 302 289 300 266 282 289 303 312 324 333 320 235 223 217 203 196 194 195 195 205 211 215
3 5 348 349 345 321 335 354 342 325 318 321 320 305 302 285 328 308 201 261 292 282 310 306 283 277 258 284 302 351 340 329 301 221 212 204 197 197 198 202 198 208 221
11 13 10 9 351 323 25 356 347 317 311 295 299 295 308 273 293 306 301 202 229 263 248 272 275 265 269 274 307 311 342 320 321 239 208 197 191 199 202 205 210 220 227
27 21 3 7 348 352 7 316 299 330 292 310 307 322 304 290 293 255 287 295 215 242 293 224 254 308 308 296 278 313 342 314 316 2 207 196 187 204 217 227 231 237 239
8 28 359 352 349 359 330 316 314 315 318 311 314 315 313 302 304 319 295 301 298 298 36 304 340 348 305 296 276 284 297 294 223 100 11 114 240 255 254 251 253 247 248
357 9 350 358 353 342 335 342 330 312 312 333 330 318 321 308 311 310 296 294 295 301 343 22 20 2 327 310 298 280 295 226 163 106 278 258 250 266 257 257 256 256 251
344 355 349 348 345 343 337 349 332 335 323 314 314 308 301 301 291 284 274 296 304 302 355 358 49 19 2 349 299 274 151 87 46 355 330 291 274 263 259 256 254 251 248
337 353 351 350 355 0 356 340 354 339 339 330 314 309 294 312 297 300 278 295 305 315 348 26 14 38 9 353 29 41 51 64 59 26 329 305 277 257 256 253 247 242 240
348 354 355 6 7 351 3 349 343 348 335 333 320 301 284 304 297 297 294 285 291 298 298 38 57 24 22 16 13 29 29 47 36 33 20 346 298 267 251 241 236 232 225
358 9 7 348 12 357 358 353 342 345 354 353 350 348 318 16 342 334 332 304 323 287 292 82 64 27 43 36 24 22 34 29 27 22 26 25 10 342 277 246 234 222 221
13 12 354 359 17 350 357 352 1 2 358 6 7 11 48 35 2 350 348 9 8 349 51 89 52 41 48 30 36 44 40 43 25 14 19 24 32 38 24 327 232 221 214
13 3 7 15 14 5 358 1 7 9 9 20 22 15 23 41 23 16 32 28 25 340 74 76 87 41 39 1 38 41 33 22 29 11 17 18 24 40 36 28 27 206 193
4 9 9 24 5 21 7 5 14 5 20 30 31 17 29 30 24 10 47 35 4 338 93 88 84 79 50 58 33 3 48 34 21 5 14 20 19 35 37 39 45 71 112
9 12 16 17 19 30 19 0 19 15 25 40 27 24 19 41 40 38 32 31 352 53 68 69 68 66 45 32 19 20 58 58 41 12 8 6 22 32 29 37 40 54 63
14 27 22 15 28 38 360 351 350 28 41 48 34 28 27 25 47 52 57 55 46 45 55 69 63 64 54 39 16 19 21 11 30 1 4 18 22 33 26 34 43 53 59
6 34 7 23 42 36 3 348 340 46 49 41 31 31 51 34 23 55 69 74 59 55 54 50 58 55 60 29 67 65 65 85 97 9 288 34 25 43 26 31 39 48 56
24 31 353 29 46 51 356 342 336 63 66 59 47 49 62 52 23 21 59 68 63 50 42 64 62 77 82 75 80 100 108 95 297 247 351 54 39 60 37 39 43 49 55
9 48 351 36 45 55 0 1 351 74 67 61 58 39 44 76 349 338 349 70 73 65 58 72 79 86 92 103 141 189 223 356 90 89 84 98 98 83 79 54 52 50 52
13 47 22 29 35 63 35 359 357 20 27 41 76 80 64 19 342 322 338 153 139 160 137 128 118 116 189 205 218 234 236 236 113 132 183 112 169 98 89 104 100 88 65